LOT73T EDDH-EPKK

Flight info

Callsign LOT73T
Flight time 1h 12m
Altitude 35000
Route AMLUH2G/33 AMLUH L619 BUMIL DCT ERNUD M748 BOLBO/N0458F310 L986 LASIS T714 MOFKE
Aircraft B738/M-SDE2E3FGHIRWXY/LB1

Departure

Time 2026-05-04 19:39
Airport Hamburg Helmut Schmidt Airport (EDDH)

Arrival

Time 2026-05-04 20:52
Airport Kraków John Paul II International Airport (EPKK)
Time Latitude Longitude Altitude Speed Heading
2026-05-04 18:55 53.63111 10.00368 61 ft 0 kts 87°
2026-05-04 19:24 53.63111 10.00357 61 ft 2 kts 87°
2026-05-04 19:25 53.63110 10.00333 61 ft 2 kts 87°
2026-05-04 19:25 53.63109 10.00307 61 ft 2 kts 87°
2026-05-04 19:25 53.63111 10.00282 61 ft 2 kts 117°
2026-05-04 19:25 53.63120 10.00262 61 ft 2 kts 147°
2026-05-04 19:26 53.63132 10.00254 61 ft 0 kts 173°
2026-05-04 19:26 53.63138 10.00254 61 ft 1 kts 177°
2026-05-04 19:26 53.63139 10.00254 61 ft 0 kts 176°
2026-05-04 19:30 53.63127 10.00255 61 ft 4 kts 175°
2026-05-04 19:30 53.63088 10.00261 61 ft 6 kts 179°
2026-05-04 19:30 53.63053 10.00246 61 ft 4 kts 210°
2026-05-04 19:30 53.63030 10.00221 61 ft 3 kts 213°
2026-05-04 19:31 53.63015 10.00204 61 ft 2 kts 212°
2026-05-04 19:31 53.62994 10.00183 61 ft 3 kts 212°
2026-05-04 19:31 53.62975 10.00163 61 ft 2 kts 212°
2026-05-04 19:31 53.62953 10.00138 61 ft 4 kts 213°
2026-05-04 19:32 53.62921 10.00104 61 ft 6 kts 212°
2026-05-04 19:32 53.62893 10.00073 61 ft 0 kts 211°
2026-05-04 19:33 53.62888 10.00069 61 ft 4 kts 211°
2026-05-04 19:33 53.62834 10.00080 61 ft 11 kts 152°
2026-05-04 19:34 53.62734 10.00166 61 ft 17 kts 153°
2026-05-04 19:34 53.62633 10.00251 61 ft 11 kts 153°
2026-05-04 19:34 53.62587 10.00245 61 ft 1 kts 224°
2026-05-04 19:34 53.62582 10.00236 61 ft 2 kts 227°
2026-05-04 19:35 53.62568 10.00197 61 ft 2 kts 242°
2026-05-04 19:35 53.62567 10.00194 61 ft 0 kts 243°
2026-05-04 19:36 53.62555 10.00155 61 ft 6 kts 243°
2026-05-04 19:37 53.62540 10.00079 61 ft 7 kts 270°
2026-05-04 19:37 53.62577 9.99994 61 ft 0 kts 334°
2026-05-04 19:38 53.62580 9.99992 61 ft 4 kts 334°
2026-05-04 19:38 53.62808 9.99794 61 ft 70 kts 333°
2026-05-04 19:39 53.63433 9.99255 61 ft 128 kts 333°
2026-05-04 19:39 53.64352 9.98457 187 ft 161 kts 332°
2026-05-04 19:39 53.65332 9.97606 771 ft 163 kts 333°
2026-05-04 19:39 53.66383 9.96735 1245 ft 174 kts 334°
2026-05-04 19:40 53.67502 9.95786 1698 ft 184 kts 334°
2026-05-04 19:40 53.68691 9.94818 2032 ft 196 kts 340°
2026-05-04 19:40 53.70077 9.94427 2354 ft 208 kts
2026-05-04 19:40 53.71553 9.94561 2763 ft 218 kts
2026-05-04 19:41 53.73023 9.95059 3359 ft 221 kts 25°
2026-05-04 19:41 53.74173 9.96783 3900 ft 228 kts 57°
2026-05-04 19:41 53.74748 9.99299 4399 ft 234 kts 80°
2026-05-04 19:41 53.74735 10.02055 4859 ft 242 kts 107°
2026-05-04 19:42 53.74049 10.04664 5408 ft 244 kts 122°
2026-05-04 19:42 53.73137 10.07167 5730 ft 259 kts 124°
2026-05-04 19:42 53.72169 10.09835 6065 ft 274 kts 123°
2026-05-04 19:42 53.71190 10.12666 6521 ft 284 kts 122°
2026-05-04 19:43 53.70217 10.15567 7123 ft 289 kts 122°
2026-05-04 19:43 53.69159 10.18461 7708 ft 292 kts 130°
2026-05-04 19:43 53.67700 10.20766 8352 ft 287 kts 155°
2026-05-04 19:43 53.65903 10.22203 8956 ft 288 kts 160°
2026-05-04 19:44 53.64074 10.23554 9586 ft 291 kts 160°
2026-05-04 19:44 53.62281 10.25197 10213 ft 299 kts 144°
2026-05-04 19:44 53.60760 10.27659 10584 ft 316 kts 134°
2026-05-04 19:44 53.59295 10.30532 10932 ft 331 kts 133°
2026-05-04 19:45 53.57741 10.33536 11263 ft 346 kts 134°
2026-05-04 19:45 53.56078 10.36563 11589 ft 360 kts 135°
2026-05-04 19:45 53.54293 10.39670 11896 ft 376 kts 136°
2026-05-04 19:45 53.52428 10.42838 12269 ft 388 kts 136°
2026-05-04 19:46 53.50507 10.46067 12851 ft 394 kts 136°
2026-05-04 19:46 53.48574 10.49309 13513 ft 399 kts 136°
2026-05-04 19:46 53.46610 10.52602 14163 ft 403 kts 136°
2026-05-04 19:46 53.44636 10.55915 15011 ft 403 kts 137°
2026-05-04 19:47 53.42659 10.59232 15705 ft 406 kts 137°
2026-05-04 19:47 53.40663 10.62580 16398 ft 409 kts 137°
2026-05-04 19:47 53.38633 10.65980 17089 ft 412 kts 138°
2026-05-04 19:47 53.36578 10.69416 17734 ft 416 kts 138°
2026-05-04 19:48 53.34555 10.72795 18414 ft 417 kts 138°
2026-05-04 19:48 53.32493 10.76234 18991 ft 422 kts 139°
2026-05-04 19:48 53.30418 10.79689 19600 ft 425 kts 139°
2026-05-04 19:48 53.28333 10.83181 20180 ft 430 kts 138°
2026-05-04 19:49 53.26295 10.86919 20739 ft 435 kts 134°
2026-05-04 19:49 53.24463 10.90923 21351 ft 440 kts 128°
2026-05-04 19:49 53.22802 10.95229 21883 ft 446 kts 125°
2026-05-04 19:49 53.21253 10.99695 22371 ft 451 kts 123°
2026-05-04 19:50 53.19734 11.04329 22869 ft 456 kts 122°
2026-05-04 19:50 53.18238 11.08998 22946 ft 458 kts 122°
2026-05-04 19:50 53.16746 11.13694 23116 ft 464 kts 122°
2026-05-04 19:50 53.15236 11.18434 23810 ft 463 kts 122°
2026-05-04 19:51 53.13697 11.23149 24310 ft 465 kts 124°
2026-05-04 19:51 53.11952 11.27652 24760 ft 465 kts 131°
2026-05-04 19:51 53.09822 11.31686 25217 ft 463 kts 140°
2026-05-04 19:51 53.07435 11.35249 25719 ft 462 kts 145°
2026-05-04 19:52 53.04927 11.38555 26132 ft 464 kts 147°
2026-05-04 19:52 53.02338 11.41780 26568 ft 467 kts 148°
2026-05-04 19:52 52.99713 11.44993 26923 ft 472 kts 148°
2026-05-04 19:52 52.97044 11.48255 27348 ft 475 kts 148°
2026-05-04 19:53 52.94398 11.51510 27784 ft 478 kts 148°
2026-05-04 19:53 52.91723 11.54830 28130 ft 482 kts 148°
2026-05-04 19:53 52.89064 11.58160 28618 ft 483 kts 147°
2026-05-04 19:53 52.86380 11.61543 28942 ft 487 kts 147°
2026-05-04 19:54 52.83656 11.64992 29496 ft 485 kts 147°
2026-05-04 19:54 52.80996 11.68372 30050 ft 484 kts 148°
2026-05-04 19:54 52.78310 11.71790 30602 ft 481 kts 148°
2026-05-04 19:54 52.75678 11.75137 31018 ft 481 kts 148°
2026-05-04 19:55 52.73025 11.78505 31374 ft 482 kts 148°
2026-05-04 19:55 52.70371 11.81871 31708 ft 483 kts 148°
2026-05-04 19:55 52.67675 11.85283 32099 ft 483 kts 148°
2026-05-04 19:55 52.65001 11.88664 32490 ft 482 kts 148°
2026-05-04 19:56 52.62392 11.91984 32862 ft 482 kts 147°
2026-05-04 19:56 52.59816 11.95482 33273 ft 482 kts 144°
2026-05-04 19:56 52.57354 11.99026 33621 ft 482 kts 143°
2026-05-04 19:56 52.54940 12.02603 34030 ft 478 kts 143°
2026-05-04 19:57 52.52515 12.06236 34682 ft 470 kts 142°
2026-05-04 19:57 52.50095 12.09854 34926 ft 470 kts 142°
2026-05-04 19:57 52.47701 12.13399 34937 ft 468 kts 143°
2026-05-04 19:58 52.42872 12.20474 34937 ft 465 kts 143°
2026-05-04 19:58 52.37999 12.27528 34940 ft 467 kts 143°
2026-05-04 19:59 52.33149 12.34529 34934 ft 465 kts 142°
2026-05-04 19:59 52.28572 12.41949 34937 ft 468 kts 138°
2026-05-04 20:00 52.24123 12.49690 34931 ft 466 kts 139°
2026-05-04 20:00 52.19440 12.56977 34936 ft 464 kts 142°
2026-05-04 20:01 52.14658 12.63979 34937 ft 463 kts 142°
2026-05-04 20:01 52.09854 12.70944 34938 ft 462 kts 143°
2026-05-04 20:02 52.05156 12.77769 34933 ft 461 kts 143°
2026-05-04 20:02 52.00416 12.84672 34927 ft 461 kts 143°
2026-05-04 20:03 51.95646 12.91620 34928 ft 461 kts 143°
2026-05-04 20:03 51.90859 12.98582 34929 ft 462 kts 143°
2026-05-04 20:04 51.86107 13.05477 34929 ft 460 kts 142°
2026-05-04 20:04 51.81475 13.12539 34930 ft 464 kts 136°
2026-05-04 20:05 51.77894 13.21186 34937 ft 474 kts 120°
2026-05-04 20:05 51.75227 13.30932 34938 ft 476 kts 115°
2026-05-04 20:06 51.72792 13.40941 34936 ft 476 kts 114°
2026-05-04 20:06 51.70386 13.50880 34932 ft 476 kts 114°
2026-05-04 20:07 51.67936 13.60760 34935 ft 476 kts 115°
2026-05-04 20:07 51.65490 13.70449 34937 ft 475 kts 115°
2026-05-04 20:08 51.62976 13.80296 34942 ft 475 kts 115°
2026-05-04 20:08 51.60451 13.90113 34942 ft 475 kts 115°
2026-05-04 20:09 51.57935 13.99855 34945 ft 473 kts 115°
2026-05-04 20:09 51.55391 14.09657 34945 ft 473 kts 115°
2026-05-04 20:10 51.52853 14.19398 34950 ft 473 kts 115°
2026-05-04 20:10 51.50650 14.29338 34949 ft 476 kts 108°
2026-05-04 20:11 51.49010 14.39635 34945 ft 476 kts 105°
2026-05-04 20:11 51.47530 14.50050 34949 ft 477 kts 104°
2026-05-04 20:12 51.46051 14.60420 34946 ft 477 kts 104°
2026-05-04 20:12 51.44539 14.70745 34948 ft 476 kts 105°
2026-05-04 20:13 51.43021 14.80881 34949 ft 476 kts 105°
2026-05-04 20:13 51.41452 14.91180 34946 ft 476 kts 106°
2026-05-04 20:14 51.39543 15.01289 34948 ft 473 kts 112°
2026-05-04 20:14 51.37095 15.11041 34951 ft 472 kts 115°
2026-05-04 20:15 51.34522 15.20640 34953 ft 473 kts 116°
2026-05-04 20:15 51.31943 15.30245 34953 ft 473 kts 115°
2026-05-04 20:16 51.29350 15.39996 34948 ft 473 kts 115°
2026-05-04 20:16 51.26792 15.49671 34943 ft 475 kts 115°
2026-05-04 20:17 51.24242 15.59325 34951 ft 474 kts 114°
2026-05-04 20:17 51.21668 15.69056 34948 ft 473 kts 115°
2026-05-04 20:18 51.19112 15.78677 34957 ft 473 kts 115°
2026-05-04 20:18 51.16535 15.88347 34954 ft 473 kts 115°
2026-05-04 20:19 51.14009 15.98016 34957 ft 474 kts 114°
2026-05-04 20:19 51.11514 16.07712 34953 ft 475 kts 114°
2026-05-04 20:20 51.09013 16.17408 34953 ft 475 kts 114°
2026-05-04 20:20 51.06495 16.27110 34949 ft 475 kts 114°
2026-05-04 20:21 51.03960 16.36813 34942 ft 474 kts 114°
2026-05-04 20:21 51.00140 16.51336 34941 ft 474 kts 114°
2026-05-04 20:22 50.97578 16.61002 34947 ft 474 kts 114°
2026-05-04 20:22 50.95016 16.70635 34944 ft 474 kts 115°
2026-05-04 20:23 50.92442 16.80276 34937 ft 475 kts 115°
2026-05-04 20:23 50.89884 16.89821 34936 ft 474 kts 115°
2026-05-04 20:24 50.87306 16.99400 34936 ft 475 kts 114°
2026-05-04 20:24 50.84727 17.08953 34935 ft 475 kts 114°
2026-05-04 20:25 50.82116 17.18555 34936 ft 474 kts 114°
2026-05-04 20:25 50.79473 17.28136 34942 ft 472 kts 115°
2026-05-04 20:26 50.76833 17.37641 34941 ft 472 kts 114°
2026-05-04 20:26 50.75518 17.42360 34805 ft 471 kts 114°
2026-05-04 20:26 50.74200 17.47084 34357 ft 465 kts 114°
2026-05-04 20:27 50.72902 17.51734 33769 ft 462 kts 114°
2026-05-04 20:27 50.71611 17.56386 33032 ft 463 kts 114°
2026-05-04 20:27 50.70329 17.61040 32255 ft 464 kts 114°
2026-05-04 20:27 50.69051 17.65688 31456 ft 465 kts 114°
2026-05-04 20:28 50.67833 17.70116 30657 ft 466 kts 114°
2026-05-04 20:28 50.66520 17.74884 29783 ft 468 kts 114°
2026-05-04 20:28 50.65266 17.79430 28923 ft 470 kts 114°
2026-05-04 20:28 50.63951 17.84187 27985 ft 473 kts 114°
2026-05-04 20:29 50.62644 17.88903 27364 ft 468 kts 114°
2026-05-04 20:29 50.61361 17.93523 26867 ft 461 kts 114°
2026-05-04 20:29 50.60083 17.98103 26317 ft 455 kts 114°
2026-05-04 20:29 50.58900 18.02738 25744 ft 450 kts 109°
2026-05-04 20:30 50.58180 18.07467 25199 ft 445 kts 98°
2026-05-04 20:30 50.57864 18.12238 24651 ft 440 kts 93°
2026-05-04 20:30 50.57741 18.17015 24093 ft 436 kts 91°
2026-05-04 20:30 50.57697 18.21788 23531 ft 432 kts 90°
2026-05-04 20:31 50.57667 18.26459 22987 ft 428 kts 90°
2026-05-04 20:31 50.57622 18.31090 22438 ft 425 kts 91°
2026-05-04 20:31 50.57553 18.35691 21888 ft 421 kts 91°
2026-05-04 20:31 50.57459 18.40271 21341 ft 418 kts 92°
2026-05-04 20:32 50.57343 18.44856 20980 ft 416 kts 92°
2026-05-04 20:32 50.57203 18.49417 20957 ft 428 kts 93°
2026-05-04 20:32 50.57040 18.54156 20959 ft 431 kts 93°
2026-05-04 20:32 50.56867 18.58851 20962 ft 429 kts 93°
2026-05-04 20:33 50.56689 18.63490 20963 ft 430 kts 94°
2026-05-04 20:33 50.56390 18.68150 20962 ft 429 kts 99°
2026-05-04 20:33 50.55799 18.72708 20959 ft 428 kts 107°
2026-05-04 20:33 50.54842 18.77144 20968 ft 428 kts 112°
2026-05-04 20:34 50.53668 18.81475 20964 ft 427 kts 116°
2026-05-04 20:34 50.52416 18.85669 20967 ft 426 kts 117°
2026-05-04 20:34 50.51128 18.89824 20976 ft 427 kts 117°
2026-05-04 20:34 50.49808 18.94037 20977 ft 426 kts 117°
2026-05-04 20:35 50.48500 18.98214 20975 ft 426 kts 117°
2026-05-04 20:35 50.47201 19.02384 20978 ft 426 kts 117°
2026-05-04 20:35 50.45905 19.06568 20978 ft 427 kts 117°
2026-05-04 20:35 50.44620 19.10734 20981 ft 427 kts 117°
2026-05-04 20:36 50.43328 19.14933 20919 ft 425 kts 117°
2026-05-04 20:36 50.42061 19.19059 20384 ft 423 kts 117°
2026-05-04 20:36 50.40792 19.23194 19827 ft 419 kts 117°
2026-05-04 20:36 50.39535 19.27291 19272 ft 415 kts 117°
2026-05-04 20:37 50.38296 19.31321 18719 ft 411 kts 117°
2026-05-04 20:37 50.37068 19.35318 18160 ft 407 kts 117°
2026-05-04 20:37 50.35840 19.39305 17596 ft 404 kts 117°
2026-05-04 20:37 50.34635 19.43213 17036 ft 400 kts 117°
2026-05-04 20:38 50.33439 19.47085 16487 ft 396 kts 118°
2026-05-04 20:38 50.32246 19.50942 15935 ft 393 kts 118°
2026-05-04 20:38 50.31057 19.54779 15371 ft 389 kts 118°
2026-05-04 20:38 50.29878 19.58576 14813 ft 386 kts 118°
2026-05-04 20:39 50.28788 19.62358 14320 ft 383 kts 111°
2026-05-04 20:39 50.28170 19.66350 13838 ft 381 kts 101°
2026-05-04 20:39 50.27868 19.70471 13285 ft 380 kts 97°
2026-05-04 20:39 50.27691 19.74572 12742 ft 377 kts 96°
2026-05-04 20:40 50.27534 19.78618 12199 ft 375 kts 96°
2026-05-04 20:40 50.27350 19.82655 11653 ft 372 kts 96°
2026-05-04 20:40 50.27132 19.86667 11114 ft 370 kts 97°
2026-05-04 20:40 50.26888 19.90640 10758 ft 361 kts 98°
2026-05-04 20:41 50.26640 19.94450 10590 ft 348 kts 98°
2026-05-04 20:41 50.26393 19.98125 10467 ft 335 kts 98°
2026-05-04 20:41 50.26152 20.01674 10333 ft 322 kts 98°
2026-05-04 20:41 50.25916 20.05119 10211 ft 311 kts 98°
2026-05-04 20:42 50.25691 20.08392 10058 ft 301 kts 98°
2026-05-04 20:42 50.25468 20.11594 9723 ft 299 kts 98°
2026-05-04 20:42 50.25241 20.14836 9331 ft 298 kts 98°
2026-05-04 20:42 50.25019 20.18021 8965 ft 296 kts 98°
2026-05-04 20:43 50.24797 20.21206 8603 ft 295 kts 98°
2026-05-04 20:43 50.24576 20.24353 8238 ft 294 kts 98°
2026-05-04 20:43 50.24274 20.27481 8009 ft 285 kts 105°
2026-05-04 20:43 50.23552 20.30256 7905 ft 268 kts 129°
2026-05-04 20:44 50.22208 20.32093 7648 ft 256 kts 157°
2026-05-04 20:44 50.20544 20.32858 7427 ft 245 kts 174°
2026-05-04 20:44 50.18889 20.33258 7361 ft 234 kts 176°
2026-05-04 20:44 50.17293 20.33238 7147 ft 226 kts 197°
2026-05-04 20:45 50.15957 20.32122 6906 ft 218 kts 226°
2026-05-04 20:45 50.15114 20.30192 6649 ft 217 kts 246°
2026-05-04 20:45 50.14616 20.27943 6353 ft 222 kts 253°
2026-05-04 20:45 50.14238 20.25612 6063 ft 221 kts 256°
2026-05-04 20:46 50.13911 20.23292 5822 ft 220 kts 257°
2026-05-04 20:46 50.13598 20.20956 5733 ft 220 kts 257°
2026-05-04 20:46 50.13284 20.18612 5441 ft 225 kts 257°
2026-05-04 20:46 50.12965 20.16247 5155 ft 223 kts 257°
2026-05-04 20:47 50.12643 20.13880 4881 ft 220 kts 257°
2026-05-04 20:47 50.12330 20.11573 4708 ft 217 kts 257°
2026-05-04 20:47 50.12017 20.09272 4583 ft 215 kts 256°
2026-05-04 20:47 50.11714 20.07048 4391 ft 209 kts 256°
2026-05-04 20:48 50.11409 20.04814 4020 ft 210 kts 256°
2026-05-04 20:48 50.11109 20.02623 3735 ft 208 kts 256°
2026-05-04 20:48 50.10816 20.00479 3469 ft 195 kts 256°
2026-05-04 20:48 50.10543 19.98486 3169 ft 181 kts 256°
2026-05-04 20:49 50.10284 19.96608 2948 ft 175 kts 255°
2026-05-04 20:49 50.10029 19.94762 2712 ft 176 kts 256°
2026-05-04 20:49 50.09773 19.92906 2473 ft 176 kts 256°
2026-05-04 20:49 50.09528 19.91122 2265 ft 163 kts 256°
2026-05-04 20:50 50.09290 19.89406 2011 ft 158 kts 256°
2026-05-04 20:50 50.09060 19.87746 1820 ft 160 kts 256°
2026-05-04 20:50 50.08827 19.86066 1605 ft 158 kts 256°
2026-05-04 20:50 50.08595 19.84398 1394 ft 156 kts 257°
2026-05-04 20:51 50.08373 19.82761 1242 ft 154 kts 257°
2026-05-04 20:51 50.08142 19.81149 1012 ft 155 kts 257°
2026-05-04 20:51 50.07916 19.79522 811 ft 152 kts 257°
2026-05-04 20:51 50.07729 19.78166 800 ft 95 kts 257°
2026-05-04 20:52 50.07631 19.77472 800 ft 41 kts 256°
2026-05-04 20:52 50.07580 19.77096 800 ft 23 kts 258°
2026-05-04 20:52 50.07541 19.76872 800 ft 16 kts 231°
2026-05-04 20:52 50.07464 19.76854 800 ft 10 kts 167°
2026-05-04 20:53 50.07389 19.76880 800 ft 12 kts 169°
2026-05-04 20:53 50.07309 19.76945 800 ft 12 kts 91°
2026-05-04 20:53 50.07325 19.77079 800 ft 12 kts 78°
2026-05-04 20:53 50.07343 19.77213 800 ft 15 kts 78°
2026-05-04 20:54 50.07371 19.77419 800 ft 23 kts 76°
2026-05-04 20:54 50.07412 19.77705 800 ft 30 kts 78°
2026-05-04 20:54 50.07458 19.78028 800 ft 29 kts 78°
2026-05-04 20:54 50.07500 19.78340 800 ft 29 kts 77°
2026-05-04 20:55 50.07542 19.78641 800 ft 28 kts 77°
2026-05-04 20:55 50.07583 19.78938 800 ft 27 kts 78°
2026-05-04 20:55 50.07623 19.79224 800 ft 26 kts 78°
2026-05-04 20:55 50.07659 19.79489 800 ft 21 kts 78°
2026-05-04 20:56 50.07665 19.79682 800 ft 15 kts 142°
2026-05-04 20:56 50.07562 19.79724 800 ft 15 kts 168°
2026-05-04 20:56 50.07436 19.79767 800 ft 19 kts 167°
2026-05-04 20:56 50.07372 19.79819 800 ft 7 kts 135°
2026-05-04 20:57 50.07346 19.79838 800 ft 0 kts 165°
2026-05-04 20:57 50.07344 19.79839 800 ft 2 kts 165°
2026-05-04 20:57 50.07331 19.79848 800 ft 0 kts 140°
2026-05-04 20:57 50.07310 19.79874 800 ft 4 kts 152°
2026-05-04 20:58 50.07296 19.79882 800 ft 0 kts 167°
2026-05-04 20:58 50.07295 19.79882 800 ft 0 kts 167°